Location: Byszew
(52.1813°N, 19.2693°E)
Time: 08:19:50
(UTC+00:00)

USA 305 - Visible Passes

Search period start: 21 June 2021 00:00
Search period end: 01 July 2021 00:00
Orbit: 567 x 573 km, 54.0° (Epoch: 07 May)

Date Brightness Start Highest point End Pass type
(mag) Time Alt. Az. Time Alt. Az. Time Alt. Az.
21 Jun 3.0 01:11:27 10° SW 01:15:40 66° SSE 01:19:53 10° ENE visible
21 Jun 4.1 23:35:36 21° S 23:37:08 26° SE 23:40:40 10° E visible
22 Jun 2.9 01:12:24 10° WSW 01:16:40 80° SSE 01:20:56 10° ENE visible
22 Jun 3.7 23:36:03 23° S 23:37:59 34° SE 23:41:51 10° ENE visible
23 Jun 2.9 01:13:24 10° WSW 01:17:41 87° N 01:21:57 10° ENE visible
23 Jun 5.1 22:00:24 11° ESE 22:00:24 11° ESE 22:01:11 10° ESE visible
23 Jun 3.3 23:36:25 21° SSW 23:38:52 45° SSE 23:42:57 10° ENE visible
24 Jun 3.1 01:14:26 10° W 01:18:42 77° NNW 01:22:58 10° ENE visible
24 Jun 4.6 22:00:39 16° SE 22:00:39 16° SE 22:03:11 10° E visible
24 Jun 3.0 23:36:41 17° SW 23:39:48 58° SSE 23:44:00 10° ENE visible
25 Jun 3.2 01:15:29 10° W 01:19:45 71° N 01:24:00 10° ENE visible
25 Jun 4.1 22:00:45 21° SSE 22:01:19 22° SE 22:04:37 10° E visible
25 Jun 2.8 23:36:46 12° WSW 23:40:45 72° SSE 23:45:00 10° ENE visible
26 Jun 3.3 01:16:32 10° W 01:20:48 68° N 01:25:02 10° E visible
26 Jun 3.8 22:00:38 23° S 22:02:08 29° SE 22:05:51 10° E visible
26 Jun 2.8 23:37:28 10° WSW 23:41:44 86° SSE 23:46:01 10° ENE visible
27 Jun 3.3 01:17:35 10° W 01:21:51 68° N 01:26:06 10° E visible
27 Jun 3.4 22:00:05 17° SSW 22:02:59 39° SE 22:06:57 10° ENE visible
27 Jun 2.9 23:38:28 10° WSW 23:42:44 82° NNW 23:47:01 10° ENE visible
28 Jun 3.2 01:18:37 10° WNW 01:22:53 71° N 01:27:08 10° E visible
28 Jun 4.7 20:22:45 10° SSE 20:24:43 13° SE 20:26:49 10° E visible
28 Jun 3.0 21:59:45 10° SW 22:03:52 50° SSE 22:08:01 10° ENE visible
28 Jun 3.1 23:39:30 10° W 23:43:45 74° N 23:48:02 10° ENE visible
29 Jun 3.1 01:19:38 10° WNW 01:23:54 77° N 01:28:10 10° E visible
29 Jun 4.3 20:22:28 10° S 20:25:27 19° SE 20:28:26 10° E visible
29 Jun 2.8 22:00:35 10° SW 22:04:47 64° SSE 22:09:01 10° ENE visible
29 Jun 3.2 23:40:31 10° W 23:44:47 69° N 23:49:02 10° E visible
30 Jun 3.0 01:20:38 10° WNW 01:24:55 86° NNE 01:29:11 10° ESE visible
30 Jun 3.9 20:22:43 10° SSW 20:26:14 25° SE 20:29:44 10° E visible
30 Jun 2.8 22:01:29 10° WSW 22:05:44 79° SSE 22:10:00 10° ENE visible
30 Jun 3.3 23:41:33 10° W 23:45:49 68° N 23:50:03 10° E visible
